User: anonymous   Login
Location: Aufkirchen
(47.9603°N, 11.3653°E)
Time: 20:25:43
(UTC+02:00)
Language:

Altair - Orbit

View from above orbital plane
View from above orbital plane
View from above satellite
View from above satellite

Ground track
Ground track

The orbit data is extracted from the following two-line orbital elements,

1 00050U 60009B   21169.17181488 -.00000107  00000-0 -20400-3 0  9996
2 00050  47.2332  66.2014 0114216 335.6764  23.8663 12.20116919714873
Epoch (UTC): 18 June 2021 04:07:24
Eccentricity: 0.0114216
inclination: 47.2332°
perigee height: 1501 km
apogee height: 1683 km
right ascension of ascending node: 66.2014°
argument of perigee: 335.6764°
revolutions per day: 12.20116919
mean anomaly at epoch: 23.8663°
orbit number at epoch: 71487

The dashed part of the orbit path shows where the satellite is in the earth's shadow,  

DLR